Theta_e
329 329 329 330 323 321 325 325 323 323 325 328 329 331 330 332 332 332 335 335 333 333 334 335 335 335 332 327 326 323 321 316 313 314 317 313 313 312 316 317 317 323 321 316 314 313 313 323 321
329 330 330 326 322 325 325 322 326 324 328 334 332 333 334 333 334 334 335 334 334 333 334 336 337 336 332 328 327 325 318 314 313 319 324 316 314 312 312 312 313 320 321 316 315 312 313 319 323
329 331 329 320 318 324 326 324 323 327 327 328 331 334 334 333 332 334 335 335 334 333 334 334 335 334 330 329 329 327 321 314 315 324 324 317 315 312 311 310 311 316 317 314 313 311 311 316 318
330 331 326 322 326 323 324 323 326 327 327 327 330 331 333 334 332 332 334 335 334 333 333 334 333 333 330 330 330 330 323 315 312 321 318 323 314 312 311 311 310 311 312 311 311 311 312 311 312
330 330 323 325 325 323 323 326 328 325 325 327 331 330 333 331 333 333 333 334 334 333 333 333 332 331 330 330 330 331 326 316 312 319 318 327 315 312 311 311 310 311 311 311 311 311 311 312 313
329 328 325 329 330 325 324 328 327 325 325 326 328 331 331 331 330 333 334 333 333 331 331 331 331 331 330 330 330 331 328 320 312 314 316 318 315 312 311 310 310 311 311 311 311 311 311 312 313
327 324 328 329 330 327 325 328 327 325 325 325 328 329 330 331 331 332 335 334 334 332 331 331 331 331 330 328 327 331 329 323 315 311 312 313 312 312 311 310 310 310 311 311 311 311 311 312 312
329 324 329 328 329 329 324 326 325 326 325 326 328 325 327 328 330 333 334 335 335 333 331 332 331 328 326 324 327 331 330 326 319 312 311 311 312 312 311 310 310 310 311 311 311 311 311 311 312
328 326 328 329 328 329 326 324 324 326 327 326 326 326 327 328 329 330 333 334 334 334 333 332 331 328 325 323 324 328 330 327 322 315 311 311 311 312 311 310 310 310 311 311 311 311 311 312 312
325 324 327 325 325 327 327 325 324 325 327 327 327 327 327 327 329 326 328 330 332 333 333 333 332 330 326 323 322 325 327 326 324 318 313 310 311 311 311 310 310 311 311 311 312 311 311 311 311
325 324 323 326 327 327 327 326 325 323 323 326 327 327 327 328 329 329 327 327 326 328 331 332 333 331 329 325 322 322 323 323 321 320 316 311 310 311 311 311 310 310 311 311 312 312 311 311 311
327 326 326 327 328 327 326 327 327 324 325 326 326 327 327 327 328 328 329 328 327 326 328 330 332 332 332 329 325 323 322 320 319 318 318 315 311 310 311 311 311 310 311 311 311 312 312 312 311
326 325 327 327 327 326 326 327 326 327 327 326 327 328 328 328 328 328 329 330 330 328 327 328 329 330 332 332 329 326 323 320 318 318 319 316 313 311 311 311 311 311 310 310 311 311 312 312 312
320 323 325 325 327 326 325 325 326 326 327 328 328 328 328 328 328 329 329 328 330 331 329 328 328 330 331 331 332 330 329 323 319 318 318 317 315 313 312 312 312 312 311 311 310 311 311 312 312
322 322 320 320 322 321 323 322 322 324 324 324 326 327 326 326 326 327 327 329 329 329 330 330 329 329 331 331 331 331 331 330 325 320 317 317 316 315 315 315 314 313 313 312 311 310 310 311 312
321 321 322 318 320 321 322 321 317 321 323 324 323 323 324 323 323 323 320 320 325 328 329 329 330 330 329 330 331 331 331 330 330 328 322 319 316 316 316 315 316 315 314 313 312 311 311 310 311
318 316 319 318 318 319 319 320 318 319 319 322 323 323 322 321 320 321 321 321 322 322 323 326 327 330 329 329 331 332 331 331 331 331 329 325 320 316 316 315 314 315 316 315 313 313 313 312 311
316 319 317 317 316 316 318 318 316 320 319 319 319 320 320 319 318 318 320 320 321 321 323 324 327 327 329 330 331 331 332 331 331 331 331 330 326 321 317 317 316 316 316 316 316 313 313 313 312
311 316 316 315 316 319 317 317 317 317 316 317 318 318 317 315 318 319 319 320 320 321 320 320 322 326 327 330 331 331 329 329 329 329 330 331 330 328 321 319 318 317 317 316 316 316 314 313 314
315 315 315 315 315 316 315 314 313 313 314 315 316 315 317 318 316 315 316 318 319 320 319 319 320 323 327 327 329 330 330 329 329 329 328 329 331 331 329 324 321 320 319 318 318 317 316 315 313
318 317 314 315 315 314 315 315 312 312 314 315 316 318 318 319 319 319 319 319 320 319 319 319 320 322 325 326 327 330 331 331 330 329 328 325 326 329 331 330 328 324 322 321 321 320 318 317 315
317 316 314 315 316 314 314 310 310 311 313 313 315 317 318 318 319 319 319 319 318 319 319 319 319 320 322 324 326 327 330 330 329 328 328 328 328 327 329 331 330 329 327 326 324 323 322 321 318
314 315 316 314 314 316 314 315 312 314 315 313 313 316 317 317 317 317 317 317 318 319 320 320 319 319 320 321 324 326 328 329 330 331 331 330 327 326 327 328 329 330 329 329 328 327 326 325 324
312 313 315 314 317 317 314 314 311 310 312 313 314 316 316 316 316 317 317 318 319 320 321 319 319 319 320 321 325 328 329 330 331 331 331 331 329 328 329 329 330 330 330 330 329 328 328 327 327
314 314 311 315 317 314 309 313 312 310 310 310 310 314 315 316 316 312 312 313 316 319 321 321 321 322 324 326 327 328 329 330 331 331 331 331 330 330 330 330 330 329 329 330 330 330 329 329 327
315 314 309 309 312 313 311 316 313 312 313 313 313 314 314 314 309 308 308 307 308 312 315 320 322 324 325 327 327 328 329 329 330 329 330 329 329 329 329 330 329 328 327 328 329 330 330 330 329
314 316 312 312 306 309 311 311 312 311 311 312 313 313 313 309 308 306 306 306 306 308 309 311 312 314 318 322 325 326 326 326 327 328 328 327 327 326 326 325 325 327 329 328 328 325 328 330 329
312 312 315 315 314 315 312 313 314 312 310 309 308 310 310 307 306 306 305 305 307 308 307 307 307 306 305 306 308 309 311 312 313 314 314 314 314 315 320 323 324 324 325 325 323 323 322 322 325
313 314 312 311 314 314 310 312 309 311 311 308 307 310 307 307 306 304 305 305 306 306 306 305 304 303 303 302 301 302 302 303 305 307 308 309 310 311 312 313 318 322 323 323 323 323 321 324 323
311 312 313 313 312 313 311 310 307 307 308 307 309 307 307 307 304 304 304 304 303 303 303 303 302 302 301 300 300 300 300 300 300 301 301 301 302 303 306 309 311 312 313 318 319 321 321 322 322
Wind_Speed
18 18 12 1 4 5 1 3 1 1 2 1 3 4 4 2 2 2 12 13 18 17 18 17 13 10 8 8 6 6 6 5 7 6 7 8 8 8 9 6 10 12 12 11 12 11 11 14 13
17 15 5 3 5 3 3 3 3 2 5 11 5 4 2 1 1 2 17 16 17 16 15 16 14 11 7 4 5 5 6 6 8 8 9 9 7 7 7 7 9 11 11 11 10 9 10 12 13
14 10 3 4 3 4 4 3 3 3 6 2 2 3 1 1 2 6 11 15 18 15 13 14 13 10 6 4 4 4 5 5 6 10 9 6 7 7 6 7 8 10 10 9 8 7 7 9 11
12 4 4 4 3 0 2 5 6 4 2 3 4 1 0 1 1 10 11 14 15 15 14 14 12 10 6 4 4 3 3 5 6 7 7 8 7 6 5 6 6 7 8 8 7 6 5 5 9
8 4 4 4 2 1 2 6 8 3 1 3 3 2 1 2 4 9 12 13 13 14 14 13 12 9 8 7 6 4 2 4 7 7 8 9 5 4 4 4 5 6 7 7 6 5 4 3 6
5 3 4 2 3 3 1 5 5 2 3 3 2 3 1 4 4 6 10 10 11 13 14 13 11 10 9 8 7 5 3 3 5 8 7 9 4 2 3 4 4 4 5 6 6 5 3 1 2
3 3 3 3 2 1 2 8 4 4 3 2 2 2 2 6 7 5 8 11 11 12 14 13 12 11 11 9 8 7 4 3 6 7 6 8 6 3 2 4 4 5 7 7 7 5 4 2 1
3 4 3 1 3 2 2 7 2 7 4 1 6 1 1 3 8 8 9 12 12 12 14 14 14 13 12 11 11 10 7 5 4 8 8 7 7 6 4 5 5 6 6 7 6 6 5 4 4
1 4 1 3 4 3 3 2 2 3 4 5 5 4 4 3 9 11 14 15 16 16 16 15 14 14 13 13 12 12 10 8 7 8 11 9 8 8 6 5 5 6 7 7 8 8 7 7 6
3 3 7 3 3 2 1 2 6 3 4 5 6 7 5 5 9 12 15 17 18 19 19 19 16 14 15 15 14 14 13 12 10 9 11 12 11 10 9 7 6 6 9 10 10 10 9 8 8
2 5 4 3 4 1 3 1 3 4 3 9 11 8 7 8 10 14 13 16 16 16 19 19 19 17 16 17 16 16 16 15 14 12 11 13 14 13 12 10 8 7 9 11 12 11 11 11 11
3 6 4 3 4 2 2 2 3 7 5 5 8 6 8 11 12 13 14 12 14 17 17 18 19 20 19 18 18 18 18 17 17 15 14 14 16 15 14 12 11 10 10 11 13 13 13 13 13
4 5 8 9 6 5 4 6 7 8 12 8 10 8 10 13 15 15 17 19 18 17 17 20 20 20 21 21 20 20 21 20 18 18 17 17 16 17 16 15 14 13 13 13 14 15 15 15 16
3 8 8 7 13 8 4 7 7 4 9 17 18 17 12 13 16 18 21 22 23 22 19 19 23 23 22 22 22 22 22 21 20 20 20 19 19 17 17 17 16 16 15 14 15 16 17 18 19
4 3 3 5 7 6 5 8 10 26 22 21 16 16 18 20 18 22 22 25 25 26 26 27 25 24 26 25 24 23 24 23 23 21 21 21 21 21 21 20 20 17 17 17 18 18 20 21 21
4 3 3 3 13 7 11 18 1 12 19 23 26 26 26 24 20 17 24 27 27 28 29 29 30 30 27 28 28 26 24 25 25 25 24 22 23 23 24 24 23 20 20 21 21 20 21 22 22
2 3 5 6 12 4 8 9 4 6 15 16 17 19 21 24 22 21 15 15 19 22 27 31 31 33 31 29 29 29 26 27 26 27 27 26 25 25 25 26 25 23 23 25 24 24 24 24 24
6 4 5 6 2 6 6 12 9 15 13 17 18 22 26 32 33 28 25 24 23 23 22 25 29 31 32 33 32 31 31 30 30 30 29 28 28 27 27 27 27 25 26 27 27 27 26 27 26
6 5 8 2 3 3 8 12 19 19 17 21 33 32 29 32 31 26 24 25 24 23 24 27 27 29 32 35 36 36 33 32 32 32 31 30 30 30 30 30 28 26 28 28 28 29 30 31 28
4 4 5 4 3 3 5 11 14 14 15 25 29 34 32 29 28 29 28 25 25 27 30 31 30 27 30 35 36 36 36 33 32 32 32 32 32 32 32 33 33 30 30 31 31 30 32 33 31
13 16 4 3 3 3 5 16 10 11 15 20 26 30 28 27 27 24 23 24 27 32 32 31 32 29 26 29 35 38 38 38 34 33 34 32 33 34 35 35 34 34 34 34 34 33 32 35 34
16 7 7 5 3 5 3 10 7 4 5 5 13 18 23 25 26 26 27 28 26 27 28 30 30 30 27 26 31 36 38 37 32 31 27 30 31 32 33 35 37 37 38 37 38 37 36 35 38
6 8 12 6 4 3 7 4 5 1 4 6 10 14 14 15 17 18 15 17 20 19 23 24 25 28 25 26 26 32 36 35 36 36 34 31 28 27 29 30 31 35 37 39 41 43 41 40 40
7 5 4 3 9 10 16 8 17 11 6 5 10 16 17 13 7 4 1 3 9 14 15 15 17 19 23 23 23 27 31 34 36 36 36 35 32 29 26 26 28 29 33 35 37 40 43 43 44
8 8 3 6 7 13 10 8 21 3 4 5 9 13 6 1 6 9 8 9 8 6 4 7 9 9 11 13 15 16 20 25 29 30 32 32 33 33 32 30 28 27 26 28 31 35 38 39 43
22 14 5 7 5 8 4 10 17 4 21 27 27 20 7 10 11 12 13 14 14 15 16 12 4 5 6 7 6 7 9 12 16 18 21 22 25 27 29 31 31 27 24 24 26 30 34 35 39
15 17 8 3 1 2 5 7 10 7 7 7 4 5 12 16 15 16 15 16 17 19 21 20 20 18 13 7 2 2 6 9 11 13 16 19 21 24 27 29 31 31 27 26 25 28 33 37 38
9 7 8 7 8 9 4 4 9 2 6 5 7 16 22 17 18 17 17 17 18 19 19 18 18 19 18 16 15 12 9 6 4 5 8 12 15 20 22 24 28 31 32 28 24 28 33 34 37
8 9 6 4 7 5 3 7 7 11 6 8 10 26 21 18 17 17 18 18 17 15 14 14 15 15 16 16 14 12 11 10 7 7 9 11 13 15 18 20 24 26 28 30 31 30 33 37 38
19 16 19 6 10 5 1 5 4 7 8 18 20 20 17 13 15 17 17 15 13 12 10 10 11 11 13 13 12 11 11 11 11 12 13 14 16 17 19 20 21 22 24 25 29 33 29 34 38
Wind_Direction
340 344 343 11 57 66 351 267 285 123 95 299 137 140 153 90 162 208 151 156 157 162 161 157 166 175 163 118 114 111 112 110 141 132 121 117 110 114 132 132 113 104 108 102 101 100 89 82 80
339 347 350 72 86 73 279 266 218 191 127 114 77 78 86 146 135 168 158 158 161 166 165 167 172 183 163 112 106 105 98 111 141 136 129 118 112 106 116 115 109 113 112 106 108 102 90 87 87
339 352 4 85 102 150 182 212 193 160 153 173 109 70 113 162 170 163 172 165 165 173 178 181 184 186 163 137 123 101 95 121 143 143 146 138 130 120 122 124 124 118 115 119 117 99 91 82 79
342 353 58 78 96 233 223 192 183 152 116 150 150 44 70 229 96 160 174 178 175 182 188 189 192 193 180 172 166 143 115 136 164 165 156 146 159 150 145 136 135 129 125 131 125 108 99 80 71
351 22 47 70 334 298 254 178 171 163 157 149 168 239 170 178 147 170 178 176 185 188 195 195 199 202 203 206 200 187 147 152 173 171 162 160 183 164 152 150 147 147 146 140 131 124 117 92 69
16 51 54 117 313 301 140 167 152 203 160 164 156 154 219 195 170 174 181 189 189 199 203 205 208 213 221 225 222 215 191 175 188 185 186 187 200 145 168 170 165 145 144 146 154 156 158 128 64
75 65 163 170 222 265 174 169 176 182 170 233 163 128 271 220 194 184 188 198 199 204 214 218 219 220 225 229 233 233 226 215 205 210 199 187 215 214 168 191 182 166 161 168 177 177 187 200 233
35 85 114 263 208 213 173 162 228 178 206 202 178 237 335 270 212 197 197 205 210 217 219 228 229 229 236 238 230 232 247 253 239 216 219 209 203 220 205 189 187 182 180 189 192 200 211 221 242
38 66 229 220 168 238 175 152 154 184 166 179 203 259 294 304 207 206 205 208 215 218 221 226 233 239 238 240 241 239 240 243 256 236 223 226 225 223 221 216 198 203 201 204 207 216 223 233 248
115 130 213 197 228 246 144 201 175 173 170 203 214 234 254 270 222 221 220 220 223 224 226 230 236 242 245 247 244 244 246 247 243 251 242 230 232 233 234 228 225 219 217 216 221 227 233 242 252
158 178 222 264 200 252 315 305 198 186 223 219 223 223 237 230 234 231 237 242 246 243 239 241 244 246 247 252 253 250 249 249 252 246 240 238 236 239 238 235 231 229 226 229 232 235 240 245 253
188 221 202 237 227 169 225 293 285 219 223 262 200 243 239 244 246 252 247 251 254 254 250 248 248 249 251 254 254 256 254 255 253 252 250 244 240 241 247 246 241 238 235 237 241 244 248 253 256
208 204 209 228 226 247 253 244 248 248 243 248 239 258 264 256 258 261 265 260 253 254 260 254 251 249 250 254 255 256 257 257 258 254 252 251 252 244 243 246 247 246 244 244 250 252 253 256 260
219 213 222 226 242 252 251 268 249 214 251 249 251 269 263 258 267 265 261 265 261 259 260 264 256 253 250 252 256 258 262 263 260 257 253 254 253 250 246 249 249 250 253 255 255 258 257 258 260
242 290 332 213 222 239 227 276 232 251 257 262 253 255 269 271 261 261 267 269 269 269 268 263 262 259 254 254 257 258 260 262 260 260 259 256 255 256 256 258 256 255 257 257 255 258 259 261 264
172 167 199 237 184 231 167 260 149 241 233 247 258 264 269 271 270 258 280 270 264 265 268 271 263 258 258 256 256 257 261 261 260 261 260 261 261 259 260 261 262 262 260 261 259 260 263 265 267
270 217 221 300 207 164 188 269 267 224 220 235 250 258 269 279 279 280 266 291 276 275 271 268 265 258 257 257 256 257 261 260 261 261 262 262 263 262 263 264 264 263 264 265 266 265 266 267 269
192 198 235 210 259 218 209 258 253 252 263 263 262 264 275 282 281 278 270 277 281 276 277 274 265 258 256 256 254 254 255 257 257 258 258 260 262 264 262 264 265 266 267 267 268 269 269 271 272
181 187 204 231 260 208 235 247 263 263 253 259 266 273 272 278 279 277 274 273 269 269 277 279 274 265 255 252 249 248 252 255 256 258 261 261 261 263 264 264 265 265 267 269 270 272 271 270 273
181 192 215 296 241 210 289 266 264 253 247 250 263 272 274 276 270 269 270 272 271 275 278 271 268 268 259 253 253 254 256 259 262 264 264 264 263 263 263 264 267 266 266 268 268 269 273 273 272
224 225 142 187 355 299 347 289 240 259 238 249 252 258 262 265 267 270 271 272 274 276 270 271 258 262 265 260 253 253 253 256 259 263 264 263 263 264 264 266 266 268 267 268 271 269 269 272 275
223 178 165 183 99 241 131 278 230 229 249 209 247 250 255 258 262 268 276 280 282 282 269 262 253 251 258 263 254 255 256 259 265 270 277 276 272 269 269 271 272 272 272 271 273 274 271 270 269
220 153 195 164 177 29 245 286 288 240 282 266 257 255 259 271 278 285 285 289 281 289 275 256 247 242 251 259 261 256 257 264 268 272 276 277 284 281 279 277 276 277 277 278 275 275 274 272 271
134 78 81 116 223 243 234 201 265 234 199 218 244 250 269 285 281 281 290 311 296 288 278 253 241 242 242 259 268 267 264 265 267 273 279 285 288 288 290 291 287 286 284 285 285 282 279 277 273
166 134 184 214 210 239 152 178 246 264 276 239 244 256 240 148 141 135 107 77 64 29 316 245 231 224 240 256 271 281 282 281 281 284 286 290 292 293 295 293 292 290 291 290 290 288 285 283 279
201 197 164 195 209 233 183 214 236 213 240 260 250 255 183 153 143 116 93 78 71 76 71 78 121 195 216 226 240 269 285 286 292 297 297 301 302 304 304 302 297 291 293 295 298 296 291 288 283
192 213 199 109 58 89 213 280 303 239 250 250 258 217 178 148 128 110 95 83 74 78 78 81 84 87 88 93 138 230 254 265 265 271 283 291 292 295 298 298 299 301 299 297 296 294 298 293 290
172 140 195 219 210 230 257 256 232 308 260 196 153 155 146 135 124 109 97 92 91 89 88 87 84 84 83 83 77 72 69 54 14 312 301 296 290 286 283 286 291 294 298 294 291 289 289 288 291
167 207 213 182 197 207 199 249 218 227 190 173 162 146 142 130 120 102 105 107 103 101 93 84 79 75 72 68 67 63 57 46 29 8 349 335 330 321 312 300 287 286 290 293 291 281 284 290 290
212 213 204 203 208 211 119 265 303 227 192 159 155 142 135 117 114 115 116 110 98 85 79 71 59 54 49 44 39 35 30 23 13 5 353 340 330 324 317 309 304 301 295 288 285 286 286 288 286